• Join FlightAware (Why Join?)
  • Login
  • US Flag GB Flag 
16:42 EST


 

Airport Tracker/Info


-or-


 

Live Flight TrackerFlight Track Log ✈ JIA2328 ✈ 13-May-2013 ✈ KCLT - KOAJ

Flight Track Log - Related Links

Times and Time Zones

All times are in EDT time to prevent confusion due to time zone crossing. See the JIA2328 flight status page for this flight to view local times or setup timezone preferences in your user account.

Time Position Orientation Groundspeed Altitude Reporting Facility
EDT Latitude Longitude Course Direction KTS MPH feet Rate Location/Type
18:05 35.2347 -80.9392 106° East 163 188 1,900  Level Atlanta Center
18:06 35.2883 -80.9167 19° North 237 273 4,100 2,280 Climbing Atlanta Center
18:07 35.3003 -80.8883 63° Northeast 296 341 5,100 3,000 Climbing Atlanta Center
18:08 35.0976 -80.6717 82° East  Level FlightAware Approximate
18:08 35.2811 -80.7950 104° East 301 346 8,300  Level Atlanta Center
18:09 35.0756 -80.5480 109° East  Level FlightAware Approximate
18:10 35.0487 -80.4241 106° East  Level FlightAware Approximate
18:10 35.1903 -80.5978 119° Southeast 336 387 12,900  Level Atlanta Center
18:11 35.0193 -80.3004 106° East  Level FlightAware Approximate
18:12 35.0939 -80.3822 119° Southeast 400 460 16,300  Level Washington Center
18:13 35.0439 -80.2775 120° Southeast 400 460 17,800 1,320 Climbing Washington Center
18:14 34.9844 -80.1425 118° Southeast 406 467 19,000 540 Climbing Washington Center
18:15 34.9519 -80.0061 106° East 411 473 19,000  Level Washington Center
18:16 34.9381 -79.8711 97° East 401 461 19,000  Level Washington Center
18:17 34.9453 -79.7322 86° East 401 461 19,000  Level Washington Center
18:18 34.9539 -79.5958 86° East 401 461 19,000  Level Washington Center
18:19 34.9564 -79.4567 89° East 401 461 19,000  Level Washington Center
18:20 34.9628 -79.3225 87° East 401 461 19,000  Level Washington Center
18:21 34.9711 -79.1861 86° East 401 461 19,000  Level Washington Center
18:22 34.9772 -79.0494 87° East 401 461 19,000 -480 Level Washington Center
18:23 34.9811 -78.9153 88° East 401 461 18,100 -900 Descending Washington Center
18:24 34.9744 -78.7806 93° East 401 461 17,200 -1,140 Descending Washington Center
18:25 34.9569 -78.6458 99° East 401 461 15,900 -1,320 Descending Washington Center
18:26 34.9394 -78.5133 99° East 401 461 14,700 -1,260 Descending Washington Center
18:27 34.9236 -78.3886 99° East 388 447 13,400 -1,440 Descending Washington Center
18:28 34.9097 -78.2692 98° East 373 429 11,900 -1,380 Descending Washington Center
18:29 34.8975 -78.1572 98° East 351 404 10,700 -1,380 Descending Washington Center
18:30 34.8831 -78.0531 100° East 328 377 9,300 -1,380 Descending Washington Center
18:31 34.8725 -77.9539 97° East 309 356 8,000 -1,380 Descending Washington Center
18:32 34.8617 -77.8625 98° East 284 327 6,500 -1,500 Descending Washington Center
18:33 34.8489 -77.7761 100° East 270 311 5,000 -1,560 Descending Washington Center
18:33 34.8417 -77.7100 98° East 256 295 3,900 -1,380 Descending Washington Center
18:34 34.8378 -77.6950 108° East 253 291 3,600 -1,080 Descending Washington Center
18:35 34.8225 -77.6136 103° East 247 284 2,600 -960 Descending Washington Center
18:36 34.8297 -77.5506 82° East 197 227 1,800 -840 Descending Washington Center